This is the latest recevied weather packets stored in our database for station/object N4QD-13. If no packets are shown the sender has not sent any weather packets the latest 10 day(s).
| Time | Temp. | Humidity | Pressure | Rain* | Wind** | Luminosity | Snow |
|---|---|---|---|---|---|---|---|
| 1777989306 | 22.22° C | 54% | 1014.3 hPa | 0 mm | - | 525 W/m² | - |
| 1777989003 | 22.22° C | 54% | 1014.2 hPa | 0 mm | - | 530 W/m² | - |
| 1777988699 | 22.22° C | 54% | 1014.2 hPa | 0 mm | - | 495 W/m² | - |
| 1777988395 | 22.22° C | 54% | 1014.3 hPa | 0 mm | - | 494 W/m² | - |
| 1777988093 | 21.67° C | 55% | 1014.3 hPa | 0 mm | - | 482 W/m² | - |
| 1777987788 | 21.67° C | 55% | 1014.5 hPa | 0 mm | - | 468 W/m² | - |
| 1777987485 | 21.67° C | 57% | 1014.5 hPa | 0 mm | - | 468 W/m² | - |
| 1777987183 | 21.67° C | 58% | 1014.5 hPa | 0 mm | - | 460 W/m² | - |
| 1777986880 | 21.11° C | 62% | 1014.5 hPa | 0 mm | - | 437 W/m² | - |
| 1777986578 | 21.11° C | 63% | 1014.6 hPa | 0 mm | - | 429 W/m² | - |
| 1777986276 | 20.56° C | 63% | 1014.6 hPa | 0 mm | - | 413 W/m² | - |
| 1777985972 | 20° C | 63% | 1014.7 hPa | 0 mm | - | 386 W/m² | - |
| 1777985670 | 19.44° C | 67% | 1014.7 hPa | 0 mm | - | 351 W/m² | - |
| 1777985366 | 18.89° C | 65% | 1014.7 hPa | 0 mm | - | 347 W/m² | - |
| 1777985063 | 18.89° C | 65% | 1014.6 hPa | 0 mm | - | 344 W/m² | - |
| 1777984759 | 18.89° C | 66% | 1014.6 hPa | 0 mm | - | 291 W/m² | - |
| 1777984456 | 18.33° C | 67% | 1014.7 hPa | 0 mm | - | 323 W/m² | - |
| 1777984152 | 18.89° C | 66% | 1014.6 hPa | 0 mm | - | 188 W/m² | - |
| 1777983850 | 18.33° C | 68% | 1014.8 hPa | 0 mm | - | 192 W/m² | - |
| 1777983546 | 18.33° C | 69% | 1014.7 hPa | 0 mm | - | 297 W/m² | - |
| 1777983243 | 17.78° C | 71% | 1014.7 hPa | 0 mm | - | 276 W/m² | - |
| 1777982939 | 17.22° C | 70% | 1014.9 hPa | 0 mm | - | 115 W/m² | - |
| 1777982635 | 16.67° C | 73% | 1014.8 hPa | 0 mm | - | 233 W/m² | - |
| 1777982334 | 16.11° C | 75% | 1014.8 hPa | 0 mm | - | 196 W/m² | - |
| 1777982031 | 15.56° C | 76% | 1014.8 hPa | 0 mm | - | 122 W/m² | - |
* Rain latest hour (hover to see other rain measurements)
** Current wind speed in m/s (hover to see current wind gust speed)